HVN112 VVTS-VVDN

Flight info

Callsign HVN112
Flight time 1h 9m
Altitude 33000
Route PATMA5B PATMA Q2 SADAS Q7 MUMGA Q1 SADIN SADIN2L
Aircraft A321/M-SDE3FGHIRWY/LB1

Departure

Time 2026-04-25 01:15
Airport Tan Son Nhat International Airport (VVTS)

Arrival

Time 2026-04-25 02:25
Airport Da Nang International Airport (VVDN)
Time Latitude Longitude Altitude Speed Heading
2026-04-25 00:52 10.81327 106.65485 38 ft 0 kts 158°
2026-04-25 01:02 10.81328 106.65485 37 ft 0 kts 158°
2026-04-25 01:03 10.81328 106.65484 37 ft 0 kts 158°
2026-04-25 01:04 10.81329 106.65484 37 ft 2 kts 158°
2026-04-25 01:04 10.81352 106.65472 36 ft 4 kts 142°
2026-04-25 01:04 10.81370 106.65453 35 ft 4 kts 112°
2026-04-25 01:04 10.81373 106.65433 33 ft 1 kts 69°
2026-04-25 01:05 10.81371 106.65428 34 ft 2 kts 69°
2026-04-25 01:07 10.81371 106.65429 34 ft 0 kts 69°
2026-04-25 01:07 10.81380 106.65454 36 ft 8 kts 69°
2026-04-25 01:07 10.81411 106.65533 37 ft 16 kts 67°
2026-04-25 01:07 10.81459 106.65661 37 ft 23 kts 69°
2026-04-25 01:08 10.81526 106.65790 37 ft 14 kts 24°
2026-04-25 01:08 10.81638 106.65802 37 ft 18 kts
2026-04-25 01:08 10.81760 106.65813 35 ft 14 kts 52°
2026-04-25 01:08 10.81800 106.65910 36 ft 17 kts 69°
2026-04-25 01:09 10.81848 106.66038 37 ft 20 kts 70°
2026-04-25 01:09 10.81897 106.66178 36 ft 22 kts 70°
2026-04-25 01:09 10.81947 106.66323 37 ft 22 kts 71°
2026-04-25 01:09 10.81999 106.66475 33 ft 24 kts 71°
2026-04-25 01:10 10.82019 106.66537 33 ft 25 kts 71°
2026-04-25 01:12 10.82092 106.66683 34 ft 26 kts 65°
2026-04-25 01:12 10.82163 106.66871 32 ft 30 kts 69°
2026-04-25 01:13 10.82231 106.67007 36 ft 12 kts 23°
2026-04-25 01:13 10.82316 106.66977 35 ft 15 kts 314°
2026-04-25 01:13 10.82338 106.66871 34 ft 16 kts 255°
2026-04-25 01:13 10.82324 106.66830 34 ft 0 kts 249°
2026-04-25 01:14 10.82325 106.66830 34 ft 0 kts 249°
2026-04-25 01:14 10.82319 106.66816 33 ft 10 kts 249°
2026-04-25 01:14 10.82199 106.66505 33 ft 89 kts 249°
2026-04-25 01:15 10.81873 106.65643 37 ft 169 kts 249°
2026-04-25 01:15 10.81395 106.64357 414 ft 210 kts 246°
2026-04-25 01:15 10.80857 106.62909 1195 ft 225 kts 247°
2026-04-25 01:15 10.80319 106.61395 1986 ft 229 kts 247°
2026-04-25 01:16 10.80246 106.61182 2079 ft 230 kts 247°
2026-04-25 01:21 10.80135 106.60856 2184 ft 235 kts 248°
2026-04-25 01:21 10.79586 106.59260 2809 ft 243 kts 248°
2026-04-25 01:21 10.78985 106.57628 3482 ft 250 kts 245°
2026-04-25 01:22 10.78132 106.56089 4207 ft 249 kts 226°
2026-04-25 01:22 10.76719 106.55205 5115 ft 235 kts 187°
2026-04-25 01:22 10.75200 106.55440 5907 ft 223 kts 146°
2026-04-25 01:22 10.73948 106.56385 6407 ft 231 kts 139°
2026-04-25 01:23 10.72658 106.57384 7027 ft 235 kts 140°
2026-04-25 01:23 10.71318 106.58353 7700 ft 238 kts 142°
2026-04-25 01:23 10.69936 106.59292 8393 ft 240 kts 144°
2026-04-25 01:23 10.68514 106.60217 8836 ft 245 kts 144°
2026-04-25 01:24 10.67066 106.61129 8929 ft 244 kts 145°
2026-04-25 01:24 10.65645 106.62059 8944 ft 241 kts 136°
2026-04-25 01:24 10.64659 106.63393 8945 ft 235 kts 109°
2026-04-25 01:24 10.64404 106.65072 8952 ft 257 kts 82°
2026-04-25 01:25 10.64928 106.66885 8954 ft 275 kts 69°
2026-04-25 01:25 10.65621 106.68715 8948 ft 279 kts 69°
2026-04-25 01:25 10.66330 106.70558 8947 ft 280 kts 69°
2026-04-25 01:25 10.67040 106.72409 8965 ft 283 kts 69°
2026-04-25 01:26 10.67759 106.74294 9634 ft 285 kts 69°
2026-04-25 01:26 10.68478 106.76187 10211 ft 293 kts 69°
2026-04-25 01:26 10.69238 106.78198 10343 ft 316 kts 69°
2026-04-25 01:26 10.70046 106.80345 10598 ft 331 kts 69°
2026-04-25 01:27 10.70878 106.82552 10892 ft 337 kts 69°
2026-04-25 01:27 10.71909 106.84689 10950 ft 339 kts 58°
2026-04-25 01:27 10.73339 106.86574 11455 ft 342 kts 51°
2026-04-25 01:28 10.76347 106.90376 12627 ft 349 kts 52°
2026-04-25 01:28 10.77862 106.92316 13186 ft 352 kts 52°
2026-04-25 01:28 10.79397 106.94286 13682 ft 357 kts 52°
2026-04-25 01:28 10.80951 106.96280 14143 ft 361 kts 52°
2026-04-25 01:29 10.82521 106.98288 14606 ft 365 kts 52°
2026-04-25 01:29 10.84108 107.00314 15076 ft 368 kts 52°
2026-04-25 01:29 10.85712 107.02362 15544 ft 371 kts 52°
2026-04-25 01:29 10.87330 107.04425 16001 ft 375 kts 52°
2026-04-25 01:30 10.89023 107.06457 16443 ft 379 kts 45°
2026-04-25 01:30 10.91058 107.08177 16874 ft 383 kts 34°
2026-04-25 01:30 10.93340 107.09598 17316 ft 386 kts 31°
2026-04-25 01:30 10.95651 107.11011 17730 ft 390 kts 31°
2026-04-25 01:31 10.97984 107.12441 18141 ft 393 kts 31°
2026-04-25 01:31 11.00342 107.13889 18542 ft 396 kts 31°
2026-04-25 01:31 11.02707 107.15341 18930 ft 398 kts 31°
2026-04-25 01:31 11.05084 107.16802 19353 ft 400 kts 31°
2026-04-25 01:32 11.07468 107.18271 19764 ft 402 kts 31°
2026-04-25 01:32 11.09835 107.19730 20159 ft 403 kts 31°
2026-04-25 01:32 11.12239 107.21212 20564 ft 405 kts 31°
2026-04-25 01:32 11.14656 107.22700 20942 ft 407 kts 30°
2026-04-25 01:33 11.17129 107.24103 21311 ft 408 kts 25°
2026-04-25 01:33 11.19696 107.25347 21681 ft 410 kts 25°
2026-04-25 01:33 11.22276 107.26597 22052 ft 411 kts 24°
2026-04-25 01:33 11.24863 107.27853 22419 ft 413 kts 25°
2026-04-25 01:34 11.27466 107.29117 22759 ft 414 kts 24°
2026-04-25 01:34 11.30072 107.30387 23127 ft 416 kts 24°
2026-04-25 01:34 11.32688 107.31662 23461 ft 418 kts 24°
2026-04-25 01:34 11.35315 107.32942 23766 ft 420 kts 24°
2026-04-25 01:35 11.37954 107.34227 24062 ft 421 kts 24°
2026-04-25 01:35 11.40605 107.35520 24358 ft 423 kts 25°
2026-04-25 01:35 11.43258 107.36813 24659 ft 424 kts 25°
2026-04-25 01:35 11.45923 107.38110 24950 ft 425 kts 25°
2026-04-25 01:36 11.48600 107.39411 25244 ft 426 kts 24°
2026-04-25 01:36 11.51280 107.40716 25553 ft 428 kts 25°
2026-04-25 01:36 11.53977 107.42033 25819 ft 430 kts 25°
2026-04-25 01:36 11.56682 107.43353 26110 ft 432 kts 25°
2026-04-25 01:37 11.59393 107.44676 26397 ft 433 kts 25°
2026-04-25 01:37 11.62082 107.45990 26701 ft 434 kts 25°
2026-04-25 01:37 11.64846 107.47341 27017 ft 436 kts 25°
2026-04-25 01:37 11.67550 107.48660 27301 ft 437 kts 25°
2026-04-25 01:38 11.70297 107.49996 27604 ft 438 kts 25°
2026-04-25 01:38 11.73055 107.51338 27886 ft 440 kts 25°
2026-04-25 01:38 11.75825 107.52689 28185 ft 441 kts 25°
2026-04-25 01:38 11.78593 107.54041 28488 ft 442 kts 25°
2026-04-25 01:39 11.81375 107.55400 28775 ft 444 kts 25°
2026-04-25 01:39 11.84168 107.56766 29060 ft 445 kts 25°
2026-04-25 01:39 11.86967 107.58133 29371 ft 446 kts 25°
2026-04-25 01:39 11.89770 107.59504 29673 ft 447 kts 25°
2026-04-25 01:40 11.92578 107.60877 29977 ft 448 kts 25°
2026-04-25 01:40 11.95394 107.62254 30212 ft 450 kts 25°
2026-04-25 01:40 11.98221 107.63635 30417 ft 451 kts 25°
2026-04-25 01:40 12.01056 107.65021 30607 ft 453 kts 25°
2026-04-25 01:41 12.02942 107.65944 30735 ft 454 kts 25°
2026-04-25 01:41 12.05794 107.67343 30918 ft 456 kts 25°
2026-04-25 01:41 12.09625 107.69224 31151 ft 458 kts 25°
2026-04-25 01:41 12.11531 107.70159 31264 ft 459 kts 25°
2026-04-25 01:42 12.14410 107.71573 31443 ft 460 kts 25°
2026-04-25 01:42 12.17292 107.72987 31679 ft 459 kts 25°
2026-04-25 01:42 12.20175 107.74398 31917 ft 459 kts 24°
2026-04-25 01:42 12.23057 107.75808 32154 ft 459 kts 24°
2026-04-25 01:43 12.25936 107.77219 32384 ft 459 kts 24°
2026-04-25 01:43 12.28823 107.78634 32615 ft 459 kts 24°
2026-04-25 01:43 12.31740 107.79951 32849 ft 458 kts 18°
2026-04-25 01:43 12.34816 107.80799 32979 ft 456 kts
2026-04-25 01:44 12.37927 107.81101 33016 ft 444 kts 360°
2026-04-25 01:44 12.40996 107.81149 33011 ft 439 kts 360°
2026-04-25 01:44 12.47099 107.81260 33002 ft 437 kts
2026-04-25 01:45 12.53147 107.81387 33002 ft 437 kts 360°
2026-04-25 01:45 12.59218 107.81507 33008 ft 436 kts 360°
2026-04-25 01:46 12.65283 107.81621 32997 ft 436 kts 360°
2026-04-25 01:46 12.71350 107.81742 33007 ft 436 kts
2026-04-25 01:47 12.77426 107.81864 33002 ft 436 kts 360°
2026-04-25 01:47 12.83495 107.81984 33002 ft 436 kts 360°
2026-04-25 01:48 12.89560 107.82104 33000 ft 436 kts
2026-04-25 01:48 12.95618 107.82224 33003 ft 435 kts
2026-04-25 01:49 13.01668 107.82344 33000 ft 434 kts
2026-04-25 01:49 13.07706 107.82459 32999 ft 434 kts
2026-04-25 01:50 13.13703 107.82573 32995 ft 434 kts
2026-04-25 01:50 13.19738 107.82699 32996 ft 434 kts
2026-04-25 01:51 13.25774 107.82823 32996 ft 434 kts
2026-04-25 01:51 13.31780 107.83280 32998 ft 434 kts 12°
2026-04-25 01:52 13.37406 107.85518 32999 ft 435 kts 23°
2026-04-25 01:52 13.42904 107.88137 33006 ft 435 kts 23°
2026-04-25 01:53 13.48394 107.90741 33008 ft 435 kts 23°
2026-04-25 01:53 13.53886 107.93346 33006 ft 435 kts 23°
2026-04-25 01:54 13.59340 107.95943 33017 ft 435 kts 22°
2026-04-25 01:54 13.64840 107.98572 33015 ft 436 kts 22°
2026-04-25 01:55 13.70346 108.01199 33025 ft 436 kts 22°
2026-04-25 01:55 13.75853 108.03816 33033 ft 436 kts 22°
2026-04-25 01:56 13.81356 108.06444 33033 ft 436 kts 22°
2026-04-25 01:56 13.86860 108.09076 33040 ft 436 kts 22°
2026-04-25 01:57 13.95078 108.13009 33048 ft 436 kts 21°
2026-04-25 01:58 14.00733 108.15129 33040 ft 430 kts
2026-04-25 01:58 14.06659 108.15510 33036 ft 427 kts 358°
2026-04-25 01:59 14.09069 108.15552 33047 ft 427 kts 358°
2026-04-25 02:01 14.12963 108.15620 33045 ft 427 kts 359°
2026-04-25 02:02 14.18864 108.15752 33047 ft 427 kts 359°
2026-04-25 02:02 14.24811 108.15894 32758 ft 426 kts 359°
2026-04-25 02:02 14.27766 108.15962 32508 ft 423 kts 359°
2026-04-25 02:03 14.30693 108.16026 32021 ft 419 kts 359°
2026-04-25 02:03 14.33594 108.16086 31516 ft 416 kts 359°
2026-04-25 02:03 14.36477 108.16147 31017 ft 413 kts 359°
2026-04-25 02:03 14.39338 108.16209 30522 ft 410 kts 359°
2026-04-25 02:04 14.42181 108.16270 30012 ft 407 kts 360°
2026-04-25 02:04 14.45005 108.16332 29490 ft 403 kts 360°
2026-04-25 02:04 14.47794 108.16395 29015 ft 399 kts 360°
2026-04-25 02:04 14.50550 108.16457 28552 ft 394 kts 360°
2026-04-25 02:05 14.53280 108.16519 28101 ft 390 kts 360°
2026-04-25 02:05 14.55978 108.16579 27658 ft 386 kts 360°
2026-04-25 02:05 14.58648 108.16640 27217 ft 382 kts 360°
2026-04-25 02:05 14.61297 108.16698 26798 ft 378 kts 360°
2026-04-25 02:06 14.63916 108.16753 26390 ft 375 kts 359°
2026-04-25 02:06 14.66510 108.16807 25984 ft 371 kts 360°
2026-04-25 02:06 14.69078 108.16864 25577 ft 367 kts 360°
2026-04-25 02:06 14.71625 108.16922 25182 ft 363 kts 360°
2026-04-25 02:07 14.74107 108.16978 24795 ft 360 kts 359°
2026-04-25 02:07 14.76607 108.17033 24409 ft 358 kts 359°
2026-04-25 02:07 14.79094 108.17086 24007 ft 357 kts 359°
2026-04-25 02:07 14.81574 108.17140 23604 ft 355 kts 359°
2026-04-25 02:08 14.84043 108.17194 23142 ft 353 kts 359°
2026-04-25 02:08 14.86491 108.17250 22727 ft 351 kts 359°
2026-04-25 02:08 14.88930 108.17304 22315 ft 349 kts 359°
2026-04-25 02:08 14.91349 108.17356 21901 ft 347 kts 359°
2026-04-25 02:09 14.93757 108.17408 21492 ft 345 kts 359°
2026-04-25 02:09 14.96147 108.17460 21067 ft 343 kts 359°
2026-04-25 02:09 14.98527 108.17512 20646 ft 341 kts 359°
2026-04-25 02:09 15.00890 108.17562 20226 ft 339 kts 359°
2026-04-25 02:10 15.03244 108.17613 19810 ft 337 kts 359°
2026-04-25 02:10 15.05584 108.17667 19389 ft 336 kts 359°
2026-04-25 02:10 15.07898 108.17519 18975 ft 331 kts 348°
2026-04-25 02:10 15.10083 108.16929 18568 ft 328 kts 338°
2026-04-25 02:11 15.12212 108.16097 18135 ft 326 kts 338°
2026-04-25 02:11 15.14361 108.15266 17708 ft 324 kts 338°
2026-04-25 02:11 15.16436 108.14470 17311 ft 322 kts 338°
2026-04-25 02:11 15.18531 108.13669 16897 ft 320 kts 338°
2026-04-25 02:12 15.20608 108.12876 16492 ft 317 kts 339°
2026-04-25 02:12 15.22674 108.12085 16089 ft 315 kts 338°
2026-04-25 02:12 15.24726 108.11298 15686 ft 313 kts 338°
2026-04-25 02:12 15.26762 108.10513 15282 ft 312 kts 338°
2026-04-25 02:13 15.28790 108.09729 14880 ft 310 kts 339°
2026-04-25 02:13 15.30808 108.08952 14471 ft 309 kts 339°
2026-04-25 02:13 15.32823 108.08176 14053 ft 308 kts 339°
2026-04-25 02:13 15.34826 108.07403 13620 ft 307 kts 339°
2026-04-25 02:14 15.36820 108.06633 13211 ft 304 kts 339°
2026-04-25 02:14 15.38796 108.05874 12815 ft 301 kts 340°
2026-04-25 02:14 15.40833 108.05426 12423 ft 299 kts 355°
2026-04-25 02:14 15.42595 108.05478 12097 ft 298 kts
2026-04-25 02:15 15.43358 108.05627 11946 ft 297 kts 13°
2026-04-25 02:15 15.45290 108.06379 11549 ft 296 kts 26°
2026-04-25 02:15 15.47120 108.07339 11170 ft 294 kts 26°
2026-04-25 02:15 15.48924 108.08276 10785 ft 293 kts 26°
2026-04-25 02:16 15.50767 108.09228 10399 ft 292 kts 26°
2026-04-25 02:16 15.52554 108.10149 10187 ft 290 kts 26°
2026-04-25 02:16 15.54380 108.11090 10079 ft 294 kts 26°
2026-04-25 02:16 15.56218 108.12037 9771 ft 297 kts 26°
2026-04-25 02:17 15.58066 108.12989 9316 ft 295 kts 26°
2026-04-25 02:17 15.59900 108.13934 8911 ft 293 kts 26°
2026-04-25 02:17 15.61717 108.14873 8511 ft 291 kts 26°
2026-04-25 02:17 15.63517 108.15805 8126 ft 288 kts 27°
2026-04-25 02:18 15.65309 108.16733 7735 ft 286 kts 27°
2026-04-25 02:18 15.67084 108.17653 7357 ft 284 kts 27°
2026-04-25 02:18 15.68848 108.18567 6979 ft 282 kts 27°
2026-04-25 02:18 15.70593 108.19471 6598 ft 275 kts 27°
2026-04-25 02:19 15.72255 108.20333 6231 ft 260 kts 28°
2026-04-25 02:19 15.73835 108.21156 5889 ft 247 kts 28°
2026-04-25 02:19 15.75355 108.21948 5570 ft 246 kts 27°
2026-04-25 02:19 15.76895 108.22748 5236 ft 248 kts 28°
2026-04-25 02:20 15.78505 108.23386 4729 ft 256 kts 10°
2026-04-25 02:20 15.80286 108.23343 4357 ft 257 kts 353°
2026-04-25 02:20 15.82078 108.23077 4017 ft 255 kts 353°
2026-04-25 02:20 15.83830 108.22819 3689 ft 253 kts 353°
2026-04-25 02:21 15.85543 108.22570 3376 ft 251 kts 353°
2026-04-25 02:21 15.87265 108.22321 3054 ft 249 kts 353°
2026-04-25 02:21 15.88967 108.22075 2755 ft 242 kts 353°
2026-04-25 02:21 15.90576 108.21841 2429 ft 223 kts 353°
2026-04-25 02:22 15.92034 108.21630 2164 ft 199 kts 352°
2026-04-25 02:22 15.93321 108.21443 1917 ft 177 kts 352°
2026-04-25 02:22 15.94470 108.21277 1705 ft 158 kts 352°
2026-04-25 02:22 15.95521 108.21125 1516 ft 148 kts 352°
2026-04-25 02:23 15.96531 108.20978 1341 ft 144 kts 353°
2026-04-25 02:23 15.97515 108.20835 1158 ft 142 kts 353°
2026-04-25 02:23 15.98483 108.20695 981 ft 140 kts 353°
2026-04-25 02:23 15.99444 108.20553 807 ft 138 kts 354°
2026-04-25 02:24 16.00400 108.20414 614 ft 139 kts 353°
2026-04-25 02:24 16.01346 108.20268 408 ft 136 kts 352°
2026-04-25 02:24 16.02286 108.20134 214 ft 136 kts 354°
2026-04-25 02:24 16.03220 108.20005 40 ft 134 kts 354°
2026-04-25 02:25 16.03974 108.19900 33 ft 71 kts 352°
2026-04-25 02:25 16.04315 108.19850 33 ft 44 kts 351°
2026-04-25 02:25 16.04603 108.19807 34 ft 40 kts 352°
2026-04-25 02:25 16.04848 108.19779 35 ft 19 kts 13°
2026-04-25 02:26 16.04889 108.19891 35 ft 20 kts 82°
2026-04-25 02:26 16.04911 108.20057 33 ft 26 kts 81°
2026-04-25 02:26 16.04957 108.20098 32 ft 7 kts 354°
2026-04-25 02:26 16.05035 108.20089 34 ft 15 kts 352°
2026-04-25 02:27 16.05163 108.20070 34 ft 22 kts 352°
2026-04-25 02:27 16.05333 108.20047 34 ft 11 kts
2026-04-25 02:27 16.05362 108.20114 34 ft 12 kts 83°
2026-04-25 02:27 16.05368 108.20169 35 ft 6 kts 84°
2026-04-25 02:28 16.05369 108.20178 35 ft 0 kts 84°